sat.trackr.live / text

‹ back to catalog

LUMELITE-4

NORAD 56309 · 2023-057B

PAYLOAD ACTIVE UNKNOWN

§ Identity

Operator
Country
SING
Launch date
2023-04-22
Launch site
SRILR
Launch vehicle
Mass (kg)
RCS (m²)

External: N2YO · Heavens-Above · Gunter

§ Orbital elements

Epoch: 2026-05-24T20:06:12.609216Z

Period
94.64 min
Inclination
9.9919°
Eccentricity
0.0004252
Mean motion
15.21489042 rev/d
Perigee alt
498.4 km
Apogee alt
504.3 km
Semi-major
6,879.5 km
B*
3.6254e-4
RAAN
237.2728°
Arg perigee
126.3921°
Mean anomaly
233.6688°
Rev number
17,049

§ Raw data

LUMELITE-41 56309U 23057B   26144.83764594  .00009322  00000+0  36254-3 0  99912 56309   9.9919 237.2728 0004252 126.3921 233.6688 15.21489042170493

JSON: /api/v1/satellites/56309 · /tle

For live sub-satellite position, see the globe view (requires WebGL).

§ Visibility from observer

Set your observer location to see the next 7 days of passes ≥ 10°. The values pass through the URL so the page stays shareable.

No JS? Fill the form by hand. The geolocation button needs JavaScript.